Location: Kaarina
(60.4167°N, 22.4167°E)
Time: 02:00:08
(UTC+03:00)

COSMOS 2406 - Pass Details

Date: 24 August 2019
Orbit: 842 x 865 km, 71.0° (Epoch: 19 September)

Event Time Altitude Azimuth Distance (km) Brightness Sun altitude
Rises 21:46:00 0° 192° (SSW) 3,404 6.1 -5.8°
Reaches altitude 10° 21:48:31 10° 187° (S) 2,475 5.4 -6.0°
Maximum altitude 21:53:54 46° 116° (ESE) 1,145 3.5 -6.5°
Drops below altitude 10° 21:59:20 10° 45° (NE) 2,504 5.6 -7.1°
Sets 22:01:53 0° 40° (NE) 3,448 6.4 -7.3°
